Find Starlink 5311

NORAD ID: 55288 Int'l Des: 2023-010 Owner: SPXS Country: US Constellation: starlink operational
LEOCIRCULAR

リアルタイム位置

3D地球を読み込み中...

Starlink 5311について

説明を読み込み中...

次回通過

Passes for default location (London). Set your location on the main map for personalized predictions.

高度履歴

Loading altitude history...

軌道要素

1 55288U 23010V 26127.00002315 -.00032053 00000-0 -26901-2 0 9998
2 55288 70.0009 237.4161 0003337 272.6375 94.5234 14.98338974 5736
Epoch: May 7, 2026 • Age: 10 hours

現在のステータス

高度 578.0 km
速度 7.57 km/s
衛星直下点 -18.29°S, 40.87°E
打ち上げ日 Jan 19, 2023
運用期間 3.2 years
タイプ internet

技術仕様

分類 Payload
質量 305.00 kg
乾燥質量 290.00 kg
総質量 305.00 kg
長さ 0.20 m
直径 2.80 m
スパン 9.00 m
形状 Box + pan
製造者 SPXS
バスタイプ Starlink
フェーズステータス In Orbit
所有者/国 SPXS/US

Most Searched